| time (UTC) | temp F | wind direction | speed MPH | gust MPH | rain 1hr in | rain 24hr in | rain mn in | humidity % | barometer mb |
| 20260503225044 | 83 | 149 | 4.0 | 7.0 | 0.00 | 0.00 | 0.00 | 25 | 1013.6 |
| 20260503224542 | 84 | 72 | 6.0 | 13.0 | 0.00 | 0.00 | 0.00 | 25 | 1013.6 |
| 20260503224040 | 84 | 244 | 5.0 | 8.0 | 0.00 | 0.00 | 0.00 | 25 | 1013.8 |
| 20260503223538 | 84 | 285 | 2.0 | 9.0 | 0.00 | 0.00 | 0.00 | 26 | 1013.7 |
| 20260503223033 | 84 | 143 | 2.0 | 9.0 | 0.00 | 0.00 | 0.00 | 27 | 1013.6 |
| 20260503222531 | 85 | 297 | 3.0 | 8.0 | 0.00 | 0.00 | 0.00 | 26 | 1013.7 |
| 20260503222029 | 84 | 117 | 3.0 | 7.0 | 0.00 | 0.00 | 0.00 | 26 | 1013.9 |
| 20260503221527 | 84 | 265 | 3.0 | 11.0 | 0.00 | 0.00 | 0.00 | 26 | 1013.9 |
| 20260503221024 | 85 | 136 | 5.0 | 8.0 | 0.00 | 0.00 | 0.00 | 26 | 1013.8 |
| 20260503220520 | 85 | 253 | 6.0 | 10.0 | 0.00 | 0.00 | 0.00 | 26 | 1014.0 |
| 20260503220017 | 85 | 221 | 8.0 | 13.0 | 0.00 | 0.00 | 0.00 | 27 | 1014.1 |
| 20260503215514 | 84 | 223 | 4.0 | 14.0 | 0.00 | 0.00 | 0.00 | 27 | 1014.2 |
| 20260503215011 | 85 | 220 | 4.0 | 10.0 | 0.00 | 0.00 | 0.00 | 27 | 1014.2 |
| 20260503214510 | 85 | 280 | 6.0 | 9.0 | 0.00 | 0.00 | 0.00 | 27 | 1013.9 |
| 20260503214006 | 85 | 21 | 1.0 | 9.0 | 0.00 | 0.00 | 0.00 | 27 | 1013.9 |
| 20260503213504 | 85 | 39 | 2.0 | 4.0 | 0.00 | 0.00 | 0.00 | 28 | 1014.3 |
| 20260503213000 | 85 | 176 | 6.0 | 10.0 | 0.00 | 0.00 | 0.00 | 26 | 1014.4 |
| 20260503212458 | 85 | 346 | 2.0 | 7.0 | 0.00 | 0.00 | 0.00 | 25 | 1014.7 |
| 20260503211955 | 86 | 203 | 4.0 | 9.0 | 0.00 | 0.00 | 0.00 | 24 | 1014.5 |
| 20260503211452 | 85 | 185 | 4.0 | 9.0 | 0.00 | 0.00 | 0.00 | 24 | 1014.6 |
| 20260503210948 | 86 | 299 | 4.0 | 8.0 | 0.00 | 0.00 | 0.00 | 24 | 1014.8 |
| 20260503210445 | 85 | 104 | 4.0 | 11.0 | 0.00 | 0.00 | 0.00 | 26 | 1014.8 |
| 20260503205939 | 85 | 172 | 4.0 | 8.0 | 0.00 | 0.00 | 0.00 | 26 | 1014.9 |
| 20260503205437 | 86 | 354 | 1.0 | 3.0 | 0.00 | 0.00 | 0.00 | 26 | 1014.8 |
| 20260503204933 | 86 | 253 | 4.0 | 8.0 | 0.00 | 0.00 | 0.00 | 24 | 1015.0 |
| 20260503204430 | 85 | 77 | 1.0 | 6.0 | 0.00 | 0.00 | 0.00 | 27 | 1015.0 |
| 20260503203927 | 85 | 202 | 4.0 | 8.0 | 0.00 | 0.00 | 0.00 | 25 | 1015.1 |
| 20260503203425 | 85 | 327 | 4.0 | 15.0 | 0.00 | 0.00 | 0.00 | 25 | 1015.2 |
| 20260503202921 | 85 | 249 | 4.0 | 8.0 | 0.00 | 0.00 | 0.00 | 25 | 1015.4 |
| 20260503202420 | 85 | 297 | 5.0 | 7.0 | 0.00 | 0.00 | 0.00 | 25 | 1015.4 |
| 20260503201918 | 85 | 279 | 3.0 | 11.0 | 0.00 | 0.00 | 0.00 | 26 | 1015.5 |
| 20260503201414 | 85 | 196 | 3.0 | 7.0 | 0.00 | 0.00 | 0.00 | 26 | 1015.3 |
| 20260503200912 | 84 | 227 | 5.0 | 9.0 | 0.00 | 0.00 | 0.00 | 27 | 1015.7 |
| 20260503200408 | 85 | 347 | 4.0 | 8.0 | 0.00 | 0.00 | 0.00 | 28 | 1015.8 |
| 20260503195905 | 85 | 174 | 4.0 | 9.0 | 0.00 | 0.00 | 0.00 | 27 | 1015.9 |
| 20260503195402 | 85 | 146 | 6.0 | 15.0 | 0.00 | 0.00 | 0.00 | 26 | 1015.9 |
| 20260503194859 | 85 | 241 | 3.0 | 6.0 | 0.00 | 0.00 | 0.00 | 26 | 1015.7 |
| 20260503194355 | 85 | 265 | 6.0 | 14.0 | 0.00 | 0.00 | 0.00 | 25 | 1016.3 |
| 20260503193851 | 85 | 230 | 6.0 | 8.0 | 0.00 | 0.00 | 0.00 | 25 | 1016.2 |
| 20260503193347 | 85 | 239 | 2.0 | 8.0 | 0.00 | 0.00 | 0.00 | 25 | 1016.1 |
| 20260503192843 | 85 | 196 | 4.0 | 9.0 | 0.00 | 0.00 | 0.00 | 23 | 1016.6 |
| 20260503192338 | 85 | 251 | 6.0 | 8.0 | 0.00 | 0.00 | 0.00 | 23 | 1016.4 |
| 20260503191835 | 84 | 229 | 5.0 | 8.0 | 0.00 | 0.00 | 0.00 | 23 | 1016.5 |
| 20260503191332 | 84 | 271 | 2.0 | 6.0 | 0.00 | 0.00 | 0.00 | 25 | 1016.7 |
| 20260503190829 | 84 | 249 | 4.0 | 9.0 | 0.00 | 0.00 | 0.00 | 24 | 1016.9 |
| 20260503190326 | 84 | 335 | 2.0 | 9.0 | 0.00 | 0.00 | 0.00 | 28 | 1016.6 |
| 20260503185823 | 84 | 278 | 4.0 | 11.0 | 0.00 | 0.00 | 0.00 | 26 | 1016.7 |
| 20260503185320 | 84 | 192 | 2.0 | 10.0 | 0.00 | 0.00 | 0.00 | 26 | 1016.7 |
| 20260503184819 | 84 | 286 | 4.0 | 10.0 | 0.00 | 0.00 | 0.00 | 24 | 1016.9 |
| 20260503184316 | 84 | 304 | 3.0 | 6.0 | 0.00 | 0.00 | 0.00 | 24 | 1016.9 |
| 20260503183811 | 84 | 223 | 2.0 | 9.0 | 0.00 | 0.00 | 0.00 | 26 | 1017.0 |
| 20260503183309 | 84 | 240 | 4.0 | 7.0 | 0.00 | 0.00 | 0.00 | 27 | 1017.1 |
| 20260503182806 | 85 | 129 | 4.0 | 13.0 | 0.00 | 0.00 | 0.00 | 27 | 1017.0 |
| 20260503182306 | 85 | 260 | 5.0 | 10.0 | 0.00 | 0.00 | 0.00 | 26 | 1017.1 |
| 20260503181802 | 85 | 16 | 2.0 | 4.0 | 0.00 | 0.00 | 0.00 | 30 | 1017.3 |
| 20260503181259 | 85 | 284 | 7.0 | 9.0 | 0.00 | 0.00 | 0.00 | 27 | 1017.2 |
| 20260503180755 | 84 | 228 | 7.0 | 11.0 | 0.00 | 0.00 | 0.00 | 28 | 1017.5 |
| 20260503180253 | 83 | 318 | 3.0 | 10.0 | 0.00 | 0.00 | 0.00 | 28 | 1017.6 |
| 20260503175749 | 83 | 207 | 1.0 | 10.0 | 0.00 | 0.00 | 0.00 | 30 | 1017.5 |
| 20260503175248 | 84 | 238 | 5.0 | 9.0 | 0.00 | 0.00 | 0.00 | 29 | 1017.5 |
| 20260503174743 | 83 | 18 | 2.0 | 6.0 | 0.00 | 0.00 | 0.00 | 34 | 1017.7 |
| 20260503174242 | 83 | 270 | 4.0 | 8.0 | 0.00 | 0.00 | 0.00 | 33 | 1017.8 |
| 20260503173742 | 83 | 236 | 4.0 | 6.0 | 0.00 | 0.00 | 0.00 | 34 | 1017.8 |
| 20260503173238 | 83 | 227 | 2.0 | 6.0 | 0.00 | 0.00 | 0.00 | 34 | 1017.9 |
| 20260503172735 | 83 | 354 | 1.0 | 6.0 | 0.00 | 0.00 | 0.00 | 35 | 1018.2 |
| 20260503172232 | 82 | 206 | 2.0 | 4.0 | 0.00 | 0.00 | 0.00 | 37 | 1018.2 |
| 20260503171728 | 81 | 283 | 2.0 | 4.0 | 0.00 | 0.00 | 0.00 | 36 | 1018.3 |
| 20260503171226 | 82 | 308 | 2.0 | 6.0 | 0.00 | 0.00 | 0.00 | 36 | 1018.3 |
| 20260503170723 | 81 | 322 | 2.0 | 4.0 | 0.00 | 0.00 | 0.00 | 37 | 1018.2 |
| 20260503170220 | 80 | 244 | 5.0 | 6.0 | 0.00 | 0.00 | 0.00 | 37 | 1018.2 |
| 20260503160141 | 76 | 269 | 2.0 | 3.0 | 0.00 | 0.00 | 0.00 | 40 | 1018.6 |
| 20260503150611 | 72 | 84 | 1.0 | 4.0 | 0.00 | 0.00 | 0.00 | 44 | 1018.6 |
| 20260503150108 | 71 | 35 | 1.0 | 2.0 | 0.00 | 0.00 | 0.00 | 48 | 1018.7 |
| 20260503130955 | 59 | 93 | 0.0 | 2.0 | 0.00 | 0.00 | 0.00 | 72 | 1018.7 |
| 20260503130453 | 57 | 233 | 2.0 | 3.0 | 0.00 | 0.00 | 0.00 | 73 | 1018.7 |
| 20260503110337 | 54 | 128 | 0.0 | 2.0 | 0.00 | 0.00 | 0.00 | 73 | 1018.4 |
| 20260503090224 | 57 | 35 | 2.0 | 3.0 | 0.00 | 0.00 | 0.00 | 64 | 1019.8 |
| 20260503081151 | 57 | 41 | 0.0 | 3.0 | 0.00 | 0.00 | 0.00 | 64 | 1020.0 |
| 20260503080646 | 58 | 1 | 1.0 | 2.0 | 0.00 | 0.00 | 0.00 | 63 | 1020.1 |
| 20260503080144 | 58 | 30 | 1.0 | 2.0 | 0.00 | 0.00 | 0.00 | 63 | 1020.3 |
| 20260503072621 | 58 | 106 | 1.0 | 2.0 | 0.00 | 0.00 | 0.00 | 61 | 1020.5 |
| 20260503072117 | 58 | 53 | 2.0 | 3.0 | 0.00 | 0.00 | 0.00 | 61 | 1020.6 |
| 20260503071614 | 58 | 91 | 1.0 | 4.0 | 0.00 | 0.00 | 0.00 | 61 | 1020.5 |
| 20260503071111 | 58 | 260 | 0.0 | 2.0 | 0.00 | 0.00 | 0.00 | 61 | 1020.7 |
| 20260503070608 | 58 | 58 | 1.0 | 3.0 | 0.00 | 0.00 | 0.00 | 61 | 1020.7 |
| 20260503070106 | 58 | 319 | 0.0 | 1.0 | 0.00 | 0.00 | 0.00 | 61 | 1020.9 |
| 20260503055026 | 59 | 354 | 0.0 | 1.0 | 0.00 | 0.00 | 0.00 | 59 | 1021.0 |
| 20260503054522 | 59 | 91 | 1.0 | 2.0 | 0.00 | 0.00 | 0.00 | 58 | 1021.2 |
| 20260503054020 | 59 | 350 | 1.0 | 2.0 | 0.00 | 0.00 | 0.00 | 58 | 1021.1 |
| 20260503053518 | 59 | 309 | 0.0 | 1.0 | 0.00 | 0.00 | 0.00 | 58 | 1021.1 |
| 20260503053015 | 59 | 52 | 0.0 | 1.0 | 0.00 | 0.00 | 0.00 | 58 | 1021.0 |
| 20260503052512 | 59 | 25 | 0.0 | 1.0 | 0.00 | 0.00 | 0.00 | 58 | 1021.2 |
| 20260503052008 | 59 | 45 | 0.0 | 1.0 | 0.00 | 0.00 | 0.00 | 58 | 1021.1 |
| 20260503051503 | 59 | 21 | 0.0 | 3.0 | 0.00 | 0.00 | 0.00 | 58 | 1021.1 |
| 20260503051001 | 59 | 159 | 0.0 | 2.0 | 0.00 | 0.00 | 0.00 | 59 | 1020.9 |
| 20260503050456 | 60 | 45 | 0.0 | 2.0 | 0.00 | 0.00 | 0.00 | 58 | 1021.0 |
| 20260503045955 | 59 | 116 | 0.0 | 1.0 | 0.00 | 0.00 | 0.00 | 58 | 1020.8 |
| 20260503045452 | 60 | 323 | 0.0 | 0.0 | 0.00 | 0.00 | 0.00 | 59 | 1021.0 |
| 20260503044949 | 60 | 33 | 2.0 | 3.0 | 0.00 | 0.00 | 0.00 | 57 | 1020.9 |
| 20260503044445 | 60 | 97 | 0.0 | 1.0 | 0.00 | 0.00 | 0.00 | 59 | 1020.8 |
| 20260503043943 | 60 | 92 | 1.0 | 1.0 | 0.00 | 0.00 | 0.00 | 57 | 1021.0 |
| 20260503043439 | 60 | 58 | 0.0 | 2.0 | 0.00 | 0.00 | 0.00 | 58 | 1020.9 |
| 20260503042935 | 60 | 44 | 1.0 | 1.0 | 0.00 | 0.00 | 0.00 | 58 | 1020.8 |
| 20260503042432 | 61 | 280 | 0.0 | 1.0 | 0.00 | 0.00 | 0.00 | 58 | 1020.9 |
| 20260503041929 | 61 | 220 | 0.0 | 1.0 | 0.00 | 0.00 | 0.00 | 57 | 1020.8 |
| 20260503041426 | 61 | 67 | 2.0 | 3.0 | 0.00 | 0.00 | 0.00 | 57 | 1020.7 |
| 20260503040923 | 61 | 21 | 0.0 | 1.0 | 0.00 | 0.00 | 0.00 | 56 | 1020.7 |
| 20260503040420 | 62 | 9 | 0.0 | 2.0 | 0.00 | 0.00 | 0.00 | 56 | 1020.7 |
| 20260503035918 | 62 | 46 | 0.0 | 3.0 | 0.00 | 0.00 | 0.00 | 53 | 1020.7 |
| 20260503035414 | 62 | 89 | 0.0 | 1.0 | 0.00 | 0.00 | 0.00 | 53 | 1020.8 |
| 20260503034912 | 62 | 31 | 1.0 | 2.0 | 0.00 | 0.00 | 0.00 | 53 | 1020.6 |
| 20260503034409 | 62 | 39 | 0.0 | 1.0 | 0.00 | 0.00 | 0.00 | 53 | 1020.9 |
| 20260503033906 | 62 | 27 | 0.0 | 2.0 | 0.00 | 0.00 | 0.00 | 53 | 1021.0 |
| 20260503033404 | 62 | 50 | 0.0 | 0.0 | 0.00 | 0.00 | 0.00 | 53 | 1020.8 |
| 20260503032902 | 62 | 113 | 1.0 | 1.0 | 0.00 | 0.00 | 0.00 | 52 | 1020.9 |
| 20260503032400 | 62 | 317 | 0.0 | 1.0 | 0.00 | 0.00 | 0.00 | 53 | 1020.7 |
| 20260503031857 | 62 | 23 | 0.0 | 1.0 | 0.00 | 0.00 | 0.00 | 52 | 1020.8 |
| 20260503031349 | 62 | 78 | 0.0 | 1.0 | 0.00 | 0.00 | 0.00 | 52 | 1020.8 |
| 20260503030845 | 62 | 39 | 0.0 | 1.0 | 0.00 | 0.00 | 0.00 | 52 | 1020.6 |
| 20260503030342 | 62 | 101 | 0.0 | 2.0 | 0.00 | 0.00 | 0.00 | 52 | 1020.7 |
| 20260503025839 | 62 | 101 | 0.0 | 1.0 | 0.00 | 0.00 | 0.00 | 52 | 1020.6 |
| 20260503025336 | 63 | 101 | 0.0 | 0.0 | 0.00 | 0.00 | 0.00 | 52 | 1020.6 |
| 20260503024833 | 62 | 254 | 0.0 | 0.0 | 0.00 | 0.00 | 0.00 | 54 | 1020.6 |
| 20260503024330 | 62 | 71 | 0.0 | 0.0 | 0.00 | 0.00 | 0.00 | 52 | 1020.7 |
| 20260503023827 | 63 | 71 | 0.0 | 0.0 | 0.00 | 0.00 | 0.00 | 53 | 1020.6 |
| 20260503023324 | 63 | 71 | 0.0 | 2.0 | 0.00 | 0.00 | 0.00 | 51 | 1020.6 |
| 20260503022821 | 63 | 20 | 0.0 | 1.0 | 0.00 | 0.00 | 0.00 | 52 | 1020.6 |
| 20260503022320 | 63 | 307 | 0.0 | 0.0 | 0.00 | 0.00 | 0.00 | 52 | 1020.7 |
| 20260503021817 | 63 | 347 | 0.0 | 0.0 | 0.00 | 0.00 | 0.00 | 52 | 1020.5 |
| 20260503021314 | 63 | 346 | 0.0 | 0.0 | 0.00 | 0.00 | 0.00 | 52 | 1020.4 |
| 20260503020811 | 64 | 345 | 0.0 | 1.0 | 0.00 | 0.00 | 0.00 | 52 | 1020.3 |
| 20260503020309 | 64 | 30 | 0.0 | 1.0 | 0.00 | 0.00 | 0.00 | 51 | 1020.3 |
| 20260503015805 | 65 | 31 | 0.0 | 0.0 | 0.00 | 0.00 | 0.00 | 50 | 1020.2 |
| 20260503015305 | 65 | 30 | 1.0 | 1.0 | 0.00 | 0.00 | 0.00 | 49 | 1020.4 |
| 20260503014757 | 64 | 30 | 1.0 | 3.0 | 0.00 | 0.00 | 0.00 | 51 | 1020.1 |
| 20260503014255 | 64 | 71 | 0.0 | 0.0 | 0.00 | 0.00 | 0.00 | 51 | 1020.2 |
| 20260503013752 | 65 | 71 | 0.0 | 0.0 | 0.00 | 0.00 | 0.00 | 50 | 1020.0 |
| 20260503013250 | 65 | 71 | 0.0 | 0.0 | 0.00 | 0.00 | 0.00 | 48 | 1020.0 |
| 20260503012747 | 66 | 71 | 0.0 | 0.0 | 0.00 | 0.00 | 0.00 | 48 | 1020.0 |
| 20260503012244 | 66 | 71 | 0.0 | 0.0 | 0.00 | 0.00 | 0.00 | 46 | 1020.0 |
| 20260503011741 | 67 | 71 | 0.0 | 0.0 | 0.00 | 0.00 | 0.00 | 46 | 1019.9 |
| 20260503011238 | 67 | 71 | 0.0 | 0.0 | 0.00 | 0.00 | 0.00 | 45 | 1019.8 |
| 20260503010734 | 68 | 71 | 0.0 | 0.0 | 0.00 | 0.00 | 0.00 | 43 | 1019.9 |
| 20260503010231 | 68 | 71 | 0.0 | 1.0 | 0.00 | 0.00 | 0.00 | 43 | 1019.8 |
| 20260503005729 | 68 | 71 | 0.0 | 0.0 | 0.00 | 0.00 | 0.00 | 42 | 1019.9 |
| 20260503005226 | 68 | 71 | 0.0 | 0.0 | 0.00 | 0.00 | 0.00 | 43 | 1020.0 |
| 20260503004722 | 69 | 71 | 0.0 | 0.0 | 0.00 | 0.00 | 0.00 | 42 | 1019.7 |
| 20260503004220 | 69 | 71 | 0.0 | 0.0 | 0.00 | 0.00 | 0.00 | 41 | 1019.9 |
| 20260503003717 | 69 | 71 | 0.0 | 0.0 | 0.00 | 0.00 | 0.00 | 40 | 1019.8 |
| 20260503003214 | 69 | 71 | 0.0 | 1.0 | 0.00 | 0.00 | 0.00 | 40 | 1019.8 |
| 20260503002711 | 70 | 71 | 0.0 | 0.0 | 0.00 | 0.00 | 0.00 | 41 | 1019.8 |
| 20260503002208 | 70 | 71 | 1.0 | 1.0 | 0.00 | 0.00 | 0.00 | 39 | 1020.0 |
| 20260503001704 | 71 | 71 | 0.0 | 1.0 | 0.00 | 0.00 | 0.00 | 41 | 1019.8 |
| 20260503001200 | 71 | 71 | 1.0 | 3.0 | 0.00 | 0.00 | 0.00 | 39 | 1019.9 |
| 20260503000658 | 73 | 337 | 0.0 | 0.0 | 0.00 | 0.00 | 0.00 | 37 | 1020.0 |
| 20260503000155 | 73 | 337 | 0.0 | 0.0 | 0.00 | 0.00 | 0.00 | 36 | 1019.8 |
| 20260502235652 | 72 | 337 | 0.0 | 1.0 | 0.00 | 0.00 | 0.00 | 38 | 1019.8 |
| 20260502235150 | 73 | 337 | 0.0 | 1.0 | 0.00 | 0.00 | 0.00 | 38 | 1019.8 |
| 20260502234646 | 73 | 257 | 0.0 | 2.0 | 0.00 | 0.00 | 0.00 | 39 | 1019.9 |
| 20260502234143 | 73 | 257 | 0.0 | 0.0 | 0.00 | 0.00 | 0.00 | 37 | 1019.9 |
| 20260502233638 | 73 | 257 | 0.0 | 0.0 | 0.00 | 0.00 | 0.00 | 38 | 1020.2 |
| 20260502233130 | 73 | 256 | 1.0 | 1.0 | 0.00 | 0.00 | 0.00 | 36 | 1020.0 |
| 20260502232626 | 74 | 8 | 0.0 | 1.0 | 0.00 | 0.00 | 0.00 | 38 | 1020.1 |
| 20260502232124 | 74 | 24 | 0.0 | 1.0 | 0.00 | 0.00 | 0.00 | 37 | 1019.9 |
| 20260502231620 | 73 | 23 | 0.0 | 2.0 | 0.00 | 0.00 | 0.00 | 37 | 1019.8 |
| 20260502231118 | 73 | 8 | 0.0 | 2.0 | 0.00 | 0.00 | 0.00 | 39 | 1020.2 |
| 20260502230616 | 73 | 318 | 0.0 | 0.0 | 0.00 | 0.00 | 0.00 | 37 | 1020.1 |
| 20260502230114 | 73 | 321 | 0.0 | 1.0 | 0.00 | 0.00 | 0.00 | 38 | 1020.2 |
| 20260502225609 | 74 | 10 | 1.0 | 1.0 | 0.00 | 0.00 | 0.00 | 37 | 1020.0 |